TimeAKDT,TemperatureF,Dew PointF,Humidity,Sea Level PressureIn,VisibilityMPH,Wind Direction,Wind SpeedMPH,Gust SpeedMPH,PrecipitationIn,Events,Conditions,WindDirDegrees,DateUTC
12:53 AM,30.9,19.0,61,29.78,10.0,NNE,9.2,-,N/A,,Clear,30,2012-10-28 08:53:00
1:53 AM,30.9,19.0,61,29.79,10.0,NE,8.1,-,N/A,,Clear,40,2012-10-28 09:53:00
2:53 AM,30.0,19.0,64,29.79,10.0,NE,10.4,-,N/A,,Clear,40,2012-10-28 10:53:00
3:53 AM,28.9,18.0,64,29.79,10.0,Variable,4.6,-,N/A,,Clear,0,2012-10-28 11:53:00
4:53 AM,28.9,18.0,64,29.79,10.0,NNE,9.2,-,N/A,,Clear,30,2012-10-28 12:53:00
5:53 AM,28.9,18.0,64,29.80,10.0,NNE,9.2,-,N/A,,Clear,30,2012-10-28 13:53:00
6:53 AM,28.9,18.0,64,29.81,10.0,NNE,6.9,-,N/A,,Clear,30,2012-10-28 14:53:00
7:53 AM,28.0,18.0,66,29.81,10.0,NE,9.2,-,N/A,,Clear,40,2012-10-28 15:53:00
8:53 AM,28.9,18.0,64,29.81,10.0,NNE,10.4,-,N/A,,Clear,20,2012-10-28 16:53:00
9:53 AM,32.0,19.0,59,29.83,10.0,NE,5.8,-,N/A,,Clear,40,2012-10-28 17:53:00
10:53 AM,35.1,19.0,52,29.83,10.0,Variable,6.9,-,N/A,,Scattered Clouds,0,2012-10-28 18:53:00
11:53 AM,36.0,17.1,46,29.82,10.0,NE,9.2,18.4,N/A,,Clear,40,2012-10-28 19:53:00
12:53 PM,36.0,17.1,46,29.81,10.0,NNE,12.7,19.6,N/A,,Mostly Cloudy,30,2012-10-28 20:53:00
1:53 PM,37.9,18.0,45,29.81,10.0,NNE,12.7,18.4,N/A,,Mostly Cloudy,30,2012-10-28 21:53:00
2:53 PM,37.9,19.0,47,29.79,10.0,NNE,10.4,-,N/A,,Partly Cloudy,20,2012-10-28 22:53:00
3:53 PM,37.0,18.0,46,29.80,10.0,NNE,9.2,-,N/A,,Clear,20,2012-10-28 23:53:00
4:53 PM,35.1,18.0,50,29.80,10.0,NNE,6.9,-,N/A,,Clear,20,2012-10-29 00:53:00
5:53 PM,33.1,18.0,54,29.79,10.0,NNE,10.4,-,N/A,,Clear,20,2012-10-29 01:53:00
6:53 PM,32.0,17.1,54,29.79,10.0,NE,8.1,-,N/A,,Clear,40,2012-10-29 02:53:00
7:53 PM,30.9,17.1,57,29.79,10.0,NNE,11.5,-,N/A,,Clear,30,2012-10-29 03:53:00
8:53 PM,30.0,18.0,61,29.78,10.0,NNE,11.5,-,N/A,,Clear,20,2012-10-29 04:53:00
9:53 PM,28.9,18.0,64,29.78,10.0,NNE,9.2,-,N/A,,Clear,20,2012-10-29 05:53:00
10:53 PM,28.0,17.1,63,29.78,10.0,NNE,10.4,-,N/A,,Clear,30,2012-10-29 06:53:00
11:53 PM,27.0,17.1,66,29.77,10.0,NNE,9.2,-,N/A,,Clear,30,2012-10-29 07:53:00